Home > Weather > Steyr > Past weeks

Flag for Austria Past Weather in Steyr, Upper Austria, Austria — Yesterday and Last 2 Weeks

Now
57 °F

Cool.


Feels Like: 56 °F
Forecast: 55 / 64 °F
Wind: 6 mph from West

Location: Kremsmuenster

Current Time: May 31, 2016 at 2:09:46 AM

Latest Report: May 31, 2016 at 1:00 AM


Visibility: N/A

Pressure: 29.85 "Hg

Humidity: 90%

Dew Point: 54 °F

Location of SteyrLocation

Past Weather in Steyr — Graph

°F

Steyr Temperature Yesterday

Maximum temperature yesterday: 72 °F (at 4:00 PM)
Minimum temperature yesterday: 60 °F (at 3:00 AM)
Average temperature yesterday: 64 °F

High & Low Weather Summary for the Past Weeks

 TemperatureHumidityPressure
High83 °F (May 22, 5:00 PM)98% (May 29, 7:00 AM)30.20 "Hg (May 29, 7:00 AM)
Low42 °F (May 17, 4:00 AM)42% (May 22, 6:00 PM)29.55 "Hg (May 29, 9:00 PM)
Average58 °F73%29.94 "Hg
* Reported May 16 12:00 AM — May 31 12:00 AM, Steyr, Weather by CustomWeather, © 2016

Note: Actual official high and low records may vary slightly from our data, if they occured in-between our weather recording intervals... More about our weather records

Advertising

Steyr Weather History for the Previous 24 Hours

Scroll right to see more
 ConditionsComfort  
Time TempWeatherWind HumidityBarometerVisibility
12:00 AM
Tue, May 31
58 °FCool.7 mph90%29.84 "HgN/A
11:00 PM
Mon, May 30
60 °FFog.5 mph85%29.82 "HgN/A
10:00 PM63 °FMild.7 mph76%29.78 "HgN/A
9:00 PM64 °FMild.5 mph78%29.78 "HgN/A
8:00 PM65 °FPartly sunny.3 mph73%29.75 "Hg9 mi
7:00 PM67 °FMild.3 mph70%29.73 "HgN/A
6:00 PM71 °FMild.2 mph56%29.72 "HgN/A
5:00 PM70 °FPartly sunny.2 mph50%29.73 "Hg9 mi
4:00 PM72 °FMild.2 mph54%29.72 "HgN/A
3:00 PM71 °FMild.2 mph56%29.73 "HgN/A
1:00 PM68 °FMild.2 mph61%29.75 "HgN/A
12:00 PM66 °FMild.2 mph64%29.76 "HgN/A
11:00 AM64 °FFog.3 mph72%29.76 "Hg9 mi
10:00 AM63 °FMild.3 mph71%29.76 "HgN/A
9:00 AM63 °FMild.3 mph71%29.75 "HgN/A
8:00 AM62 °FOvercast.2 mph73%29.74 "Hg12 mi
7:00 AM61 °FOvercast.1 mph77%29.73 "Hg9 mi
6:00 AM60 °FCool.2 mph75%29.73 "HgN/A
5:00 AM61 °FCool.2 mph75%29.71 "HgN/A
4:00 AM61 °FCool.3 mph77%29.69 "HgN/A
3:00 AM60 °FCool.5 mph78%29.70 "HgN/A
2:00 AM61 °FCool.7 mph77%29.68 "HgN/A
Weather by CustomWeather, © 2016

See weather overviewHow to use our weather pages